Location: Risskov
(56.1972°N, 10.2480°E)
Time: 23:31:48
(UTC+00:00)

Cosmos 2297 - Pass Details

Date: 05 July 2020
Orbit: 835 x 859 km, 71.0° (Epoch: 14 August)

Event Time Altitude Azimuth Distance (km) Brightness Sun altitude
Rises 22:44:38 0° 324° (NW) 3,447 8.1 -10.7°
Reaches altitude 10° 22:47:08 10° 321° (NW) 2,506 7.2 -10.8°
Maximum altitude 22:52:45 57° 244° (WSW) 1,009 4.0 -10.9°
Enters shadow 22:57:30 14° 169° (S) 2,185 5.2 -10.9°
